Tue, 2018 April 24. @ 23:15 (Europe/Berlin) | Change timezone

Search

Search

Find competitions and teams quickly

Compare

Compare

Click on this h2h icon anywhere to compare teams and see statistics

Fixtures

Fixtures

View today's matches, tomorrow's fixtures, yesterday's results or fixtures on any specific date by using the calendar


Fixtures - 2017.12.05

Group by: leagues | time
Time Home Score Away 1 X 2 H2H
 Soccer Argentina Primera Division 2017/2018
01:30 San Martín San Juan 2 : 1 Banfield 2.32 2.88 3.14
 Basketball Basketball NBA 2017/2018
01:00 Philadelphia 101 : 115 Phoenix 1.22 12.00 4.50
01:00 Charlotte Bobcats 104 : 94 Orlando 1.35 12.00 3.25
01:00 Indiana 115 : 97 New York 1.17 11.50 5.25
01:30 Atlanta 90 : 110 New Jersey 1.90 10.00 2.00
01:30 Boston 111 : 100 Milwaukee 1.55 11.50 2.50
02:00 Chicago 91 : 113 Cleveland 4.20 11.50 1.24
02:00 New Orleans 115 : 125 Golden State 4.10 11.50 1.25
02:00 Memphis 95 : 92 Minnesota 2.20 11.00 1.72
02:30 Dallas 122 : 105 Denver 1.75 10.50 2.15
02:30 San Antonio 96 : 93 Detroit 1.60 10.50 2.45
03:00 Utah 116 : 69 Washington 1.65 10.50 2.35
 Soccer Bulgaria A PFG 2017/2018
16:30 Lokomotiv Plovdiv 1 : 1 Vereya Stara Zagora 1.89 3.25 3.86
 Hockey CHL Kontinental Hockey League 2017/2018
10:30 Chabarovsk Amur 2 : 1 Red Star Kunlun 2.09 3.80 3.09
13:30 Novosibirsk 1 : 2 Magnitogorsk 2.48 3.95 2.45
14:00 Omsk 2 : 1 ot(p) Jekatěrinburg 1.91 4.01 3.40
14:30 Barys Astana 4 : 3 ot Čeljabinsk 2.05 4.11 2.98
15:00 Yugra Khanty-Mansiysk 3 : 4 ot Togliatti 2.49 3.85 2.48
17:00 Nižnyj Novgorod 4 : 1 Slovan Bratislava 1.64 4.39 4.39
17:00 Čerepovec 2 : 3 Jokerit Helsinki 3.59 4.08 1.84
17:30 Spartak Moskva 2 : 6 Vitiaz Chekhov 1.80 4.30 3.56
18:30 Dinamo Riga 0 : 1 CSKA Moskva 7.38 5.43 1.34
 Hockey Czech Republic 1st League 2017/2018
18:00 P 3 : 1 Fr 1.89 4.26 2.90
 Hockey Czech Republic Extraleague 2017/2018
17:30 Zlín 2 : 3 ot Hradec Králové 2.50 3.98 2.36
17:30 Plzeň 4 : 1 Mladá Boleslav 1.54 4.60 4.83
18:30 Sparta Praha 2 : 4 Vítkovice 1.83 4.22 3.39
 Hockey Denmark SuperBest-ligaen 2017/2018
19:00 Esbjerg 6 : 5 Totempo Hvidovre HVIK 1.24 6.63 7.75
19:00 Rodovre Kobenhavn 2 : 6 Fredrikshavn 2.97 4.29 1.93
19:00 Aalborg 5 : 2 Sonderjylland IK 1.70 4.35 3.73
19:00 Odense 4 : 2 Rungsted 1.57 4.72 4.13
19:00 Gentofte IK 0 : 3 Herlev 1.57 4.78 4.20
 Soccer England FA Trophy 2017/2018
21:20 Margate 2 : 3 ot Bath City - - -
 Soccer England LDV Trophy 2017/2018
20:00 Swansea U23 2 : 3 Charlton 2.36 3.23 2.70
20:00 Gillingham 1 : 2 Oxford 2.89 3.37 2.18
20:30 Bradford 0 : 1 Oldham 2.62 3.24 2.46
20:45 Yeovil 2 : 0 AFC Wimbledon 2.68 3.29 2.35
20:45 Swindon 0 : 1 Forest Green 1.70 3.50 4.45
20:45 Port Vale 1 : 2 Shrewsbury 3.23 3.32 2.03
20:45 Luton 4 : 0 West Ham U23 1.78 3.58 3.94
20:45 Scunthorpe 1 : 2 Leicester City U23 1.97 3.91 4.00
20:45 Fleetwood Town 2 : 0 Chesterfield 1.80 3.54 3.86
20:45 Lincoln 3 : 2 Accrington Stanley 2.18 3.23 3.02
 Basketball FIBA EuroCup M 2017/2018
18:00 Lietuvos Rytas 93 : 75 Partizan Belgrad 1.09 15.00 7.00
20:00 Limoges CSP 86 : 74 Bilbao Basket 1.20 14.00 4.40
20:00 Alba Berlin 84 : 89 Lokomotiv-Rostov 2.40 12.00 1.58
20:30 Pallacanestro Trento 103 : 81 Triumph Lyubertsy 2.55 13.00 1.52
 Hockey Finland Mestis 2017/2018
17:30 Kiekko-Vantaa 3 : 4 Tuto Turku 2.08 4.31 2.59
17:30 Kettera Imarta 4 : 2 EPS Espoo 2.22 4.34 2.39
17:30 Jokipojat Joensuu 2 : 6 LeKi 2.21 4.28 2.41
17:30 SaPKo Savonlinnan 4 : 2 HeKi Heinolan 1.33 5.94 5.63
17:30 Hermes Kokkola 2 : 1 Iisalmen Peli-Karhut 1.83 4.59 2.98
17:30 RoKi Rovaniemi 2 : 3 KeuPa HT 2.36 4.34 2.22
 Hockey Finland SM Liiga 2017/2018
17:30 Jukurit Mikkeli 3 : 2 ot TPS Turku 3.40 4.01 1.87
17:30 IFK Helsinki 3 : 4 ot Kärpät 2.44 3.99 2.41
17:30 KooKoo Kouvola 2 : 3 Saipa 2.31 4.10 2.51
17:30 Ässät Pori 4 : 3 Sport Vaasa 1.97 4.14 3.06
17:30 Lahti Pelicans 2 : 3 ot Tappara Tampere 2.69 4.10 2.16
17:30 Kalpa Kuopio 5 : 2 Hämeenlinna 1.88 4.05 3.36
17:30 Ilves Tampere 2 : 1 Lukko Rauma 2.21 4.01 2.69
 Hockey Germany 2. Bundesliga 2017/2018
20:00 Ravensburg 3 : 5 Kaufbeuren 1.90 4.74 2.75
 Hockey Hockey Champions League Champions Hockey League 2017/2018
17:00 Třinec 3 : 1 Brynas Gavle 2.07 4.22 2.71
18:00 Jyp Jyväskylä 3 : 3 Kometa Brno 1.64 4.54 3.86
19:15 Liberec 0 : 1 SC Curych 2.09 4.31 2.66
20:00 Bern 3 : 2 Vaxjö Lakers HC 2.32 4.20 2.40
 Hockey Ice Hockey NHL 2017/2018
01:00 Washington 4 : 1 San Jose 2.37 3.87 2.62
01:30 Florida 4 : 5 ot(p) NY Islanders 2.60 3.97 2.34
02:00 Nashville 5 : 3 Boston 2.33 3.92 2.63
03:00 Calgary 2 : 5 Philadelphia 2.11 3.98 2.95
 Handball IHF World Championship W 2017
12:00 Korea 31 : 19 China 1.01 28.33 25.67
12:00 Montenegro 28 : 29 Japan 1.04 22.75 14.00
14:00 Slovenia 32 : 25 Angola 1.25 12.25 5.08
14:00 Hungary 33 : 15 Argentina 1.01 24.75 22.00
15:30 Netherlands 29 : 22 Cameroon - 26.67 22.00
17:45 Russia 24 : 16 Brazilia 1.12 16.50 8.13
18:00 France 35 : 13 Paraguay - 30.00 30.00
18:00 Sweden 36 : 32 Czech Republic 1.32 10.75 4.55
18:00 Germany 22 : 22 Serbia 1.90 8.63 2.30
20:30 Norway 35 : 20 Poland 1.10 16.75 9.38
20:30 Denmark 37 : 19 Tunisia 1.01 26.25 22.00
20:30 Romania 19 : 17 Spain 2.19 8.25 2.00
 Hockey Norway Eliteserien 2017/2018
18:30 Storhamar 7 : 0 Kongsvinger 1.08 11.25 15.75
18:30 Stjernen 1 : 2 Lorenskog 2.17 4.29 2.55
18:30 Manglerud 6 : 7 ot Sapsborg Sparta 3.86 4.80 1.62
18:30 Lillehammer 2 : 1 Frisk/Asker 2.25 4.36 2.43
 Soccer Scotland Third Division 2017/2018
20:45 Stirling Albion 0 : 1 Peterhead 3.80 3.78 1.74
 Handball Slovakia Extraliga M 2017/2018
18:30 Nové Zámky 30 : 37 - - -
 Soccer Slovakia Super Liga 2017/2018
17:00 Nitra 0 : 1 Trnava 3.24 2.96 2.18
 Hockey Sweden Allsvenskan 2017/2018
19:00 Oskarshamn 5 : 4 ot(p) Sodertalje SK 1.56 4.65 4.53
19:00 Modo 4 : 2 Vita H 1.99 4.10 3.05
 Hockey Switzerland Nationalliga A 2017/2018
19:45 Lausanne 4 : 0 Kloten 1.79 4.51 3.35
 Hockey Switzerland Nationalliga B 2017/2018
19:45 Rapperswill 5 : 0 Winterthur 1.25 6.69 6.56
19:45 Academy Zug EVZ 2 : 3 ot Visp 3.24 4.81 1.70
20:00 Langenthal 3 : 5 GCK Lions 1.27 6.19 6.19
20:00 Biasca 0 : 2 Ajoie 4.42 5.29 1.45
 Soccer UEFA Champions League 2017/2018
20:45 Chelsea 1 : 1 Atletico Madrid 2.10 3.42 3.56
20:45 Benfica Lisabon 0 : 2 FC Basel 2.90 3.26 2.50
20:45 Olympiakos Piraeus 0 : 2 Juventus 8.50 4.35 1.42
20:45 Celtic Glasgow 0 : 1 Anderlecht 1.85 3.76 4.12
20:45 FC Barcelona 2 : 0 Sporting Lisabon 1.35 5.23 8.50
20:45 Bayern München 3 : 1 Paris SG 2.41 3.63 2.78
20:45 AS Roma 1 : 0 Garabag-Azersun Agdam 1.10 10.35 22.60
20:45 Manchester United 2 : 1 CSKA Moskva 1.45 4.32 7.65

Sport statistics

  • soccer, basketball, handball and icehockey statistics from more than 150 leagues (results, tables, fixtures, other usefull statistics, bookies odds etc.)
  • other useful things: comparision of teams and leagues, streaks, selections, predictions, head-to-head
  • the statistics are updated three times each day
  • RSS feeds for the upcoming matches from each sport, just click on the RSS feed in the URL field of your browser
  • archived competitions, most of them from 2003

For a detailed description of all functions and their usage check our Help page.